GW3864 Weather Reports


time (UTC)temp
F
wind
direction
speed
knots
gust
knots
rain 1hr
in
rain 24hr
in
rain mn
in
humidity
%
barometer
mb
20260505073955 49 313 0.0 0.0 0.00 0.00 0.00 76 1008.7
20260505073453 49 315 0.0 0.0 0.00 0.00 0.00 76 1008.7
20260505072950 49 315 0.9 0.9 0.00 0.00 0.00 76 1008.9
20260505072446 50 318 0.9 0.9 0.00 0.00 0.00 77 1008.4
20260505071942 50 320 0.9 0.9 0.00 0.00 0.00 77 1008.8
20260505071438 49 336 0.9 0.9 0.00 0.00 0.00 76 1008.5
20260505070937 50 279 0.0 0.9 0.00 0.00 0.00 75 1008.4
20260505070433 50 280 0.0 0.0 0.00 0.00 0.00 76 1008.3
20260505065929 50 280 0.0 0.0 0.00 0.00 0.00 76 1008.5
20260505065425 50 282 0.9 0.9 0.00 0.00 0.00 76 1008.4
20260505064922 50 282 0.9 0.9 0.00 0.00 0.00 77 1008.4
20260505064419 50 257 0.9 0.9 0.00 0.00 0.00 76 1008.2
20260505063918 50 264 0.9 0.9 0.00 0.00 0.00 77 1008.3
20260505063414 50 270 0.0 0.0 0.00 0.00 0.00 77 1008.3
20260505062910 50 269 0.0 0.0 0.00 0.00 0.00 76 1008.3
20260505062408 50 270 0.0 0.0 0.00 0.00 0.00 75 1008.3
20260505061904 51 270 0.0 0.0 0.00 0.00 0.00 76 1008.4
20260505061403 51 270 0.0 0.0 0.00 0.00 0.00 75 1008.4
20260505060900 51 270 0.0 0.0 0.00 0.00 0.00 74 1008.3
20260505060356 51 269 0.0 0.0 0.00 0.00 0.00 74 1008.1
20260505055852 51 270 0.0 0.0 0.00 0.00 0.00 75 1008.1
20260505055348 51 269 0.0 0.0 0.00 0.00 0.00 74 1008.0
20260505054846 51 269 0.9 1.7 0.00 0.00 0.00 74 1008.2
20260505054343 51 271 0.9 0.9 0.00 0.00 0.00 73 1008.2
20260505053841 52 273 0.9 0.9 0.00 0.00 0.00 73 1008.1
20260505053338 52 272 0.9 0.9 0.00 0.00 0.00 73 1008.0
20260505052834 52 267 0.0 0.0 0.00 0.00 0.00 73 1008.1
20260505052331 52 274 1.7 1.7 0.00 0.00 0.00 72 1007.8
20260505051829 53 288 0.9 0.9 0.00 0.00 0.00 72 1007.7
20260505051326 53 292 0.0 0.0 0.00 0.00 0.00 71 1007.8
20260505050824 53 294 0.9 0.9 0.00 0.00 0.00 72 1007.8
20260505050323 53 303 0.0 0.0 0.00 0.00 0.00 71 1008.0
20260505041752 55 287 0.0 0.0 0.00 0.00 0.00 66 1007.3
20260505041249 55 316 0.9 0.9 0.00 0.00 0.00 65 1007.2
20260505040747 56 278 0.9 1.7 0.00 0.00 0.00 65 1007.3
20260505040244 56 296 0.9 0.9 0.00 0.00 0.00 66 1006.9
20260505035741 56 247 0.9 0.9 0.00 0.00 0.00 65 1006.9
20260505035236 56 297 0.9 0.9 0.00 0.00 0.00 64 1006.9
20260505034734 57 267 0.9 0.9 0.00 0.00 0.00 64 1007.0
20260505034230 57 253 0.9 1.7 0.00 0.00 0.00 64 1006.9
20260505033727 57 228 0.0 0.9 0.00 0.00 0.00 63 1006.9
20260505033225 58 279 0.9 1.7 0.00 0.00 0.00 63 1007.0
20260505032723 59 322 0.9 0.9 0.00 0.00 0.00 61 1006.7
20260505032218 59 339 0.9 0.9 0.00 0.00 0.00 61 1006.7
20260505031716 59 242 0.9 1.7 0.00 0.00 0.00 60 1006.5
20260505031212 60 285 0.9 0.9 0.00 0.00 0.00 59 1006.8
20260505030709 61 306 0.0 0.0 0.00 0.00 0.00 59 1006.7
20260505030205 62 321 0.0 0.9 0.00 0.00 0.00 56 1006.7
20260505025701 62 345 0.0 0.9 0.00 0.00 0.00 52 1006.6
20260505025200 63 253 0.9 0.9 0.00 0.00 0.00 55 1006.7
20260505024657 64 312 0.9 0.9 0.00 0.00 0.00 54 1006.5
20260505024154 65 353 0.0 0.0 0.00 0.00 0.00 48 1006.6
20260505023652 67 26 0.0 0.0 0.00 0.00 0.00 46 1006.7
20260505023149 69 26 0.0 0.0 0.00 0.00 0.00 39 1006.7
20260505022646 69 45 0.0 0.0 0.00 0.00 0.00 37 1006.5
20260505022143 69 90 0.0 0.0 0.00 0.00 0.00 37 1006.6
20260505021639 70 79 0.0 0.0 0.00 0.00 0.00 36 1006.6
20260505021137 70 67 0.0 0.0 0.00 0.00 0.00 36 1006.5
20260505020632 71 8 3.5 5.2 0.00 0.00 0.00 36 1006.5
20260505020128 71 64 0.0 0.9 0.00 0.00 0.00 35 1006.3
20260505015626 72 135 0.9 1.7 0.00 0.00 0.00 35 1006.3
20260505015122 72 79 0.0 0.0 0.00 0.00 0.00 35 1006.5
20260505014619 72 82 0.9 0.9 0.00 0.00 0.00 34 1006.3
20260505014116 72 70 0.9 0.9 0.00 0.00 0.00 34 1006.6
20260505013613 72 106 0.0 0.9 0.00 0.00 0.00 34 1006.3
20260505013110 73 78 0.0 0.0 0.00 0.00 0.00 35 1006.6
20260505012609 73 84 0.9 1.7 0.00 0.00 0.00 34 1006.3
20260505012105 73 36 1.7 2.6 0.00 0.00 0.00 33 1006.5
20260505011601 74 88 0.0 0.9 0.00 0.00 0.00 33 1006.6
20260505011058 74 61 1.7 1.7 0.00 0.00 0.00 32 1006.5
20260505010553 74 31 1.7 1.7 0.00 0.00 0.00 32 1006.5
20260505010050 73 77 0.0 0.9 0.00 0.00 0.00 33 1006.3
20260505005546 74 33 5.2 7.0 0.00 0.00 0.00 32 1006.5
20260505005044 74 120 0.9 1.7 0.00 0.00 0.00 32 1006.7
20260505004541 74 109 0.9 1.7 0.00 0.00 0.00 33 1006.5
20260505004037 74 82 2.6 3.5 0.00 0.00 0.00 31 1006.3
20260505003534 74 69 4.3 7.8 0.00 0.00 0.00 31 1006.3
20260505003026 75 56 1.7 2.6 0.00 0.00 0.00 34 1006.5
20260505002520 75 313 0.9 1.7 0.00 0.00 0.00 32 1006.3
20260505002015 75 135 2.6 2.6 0.00 0.00 0.00 33 1006.3
20260505001512 75 116 2.6 3.5 0.00 0.00 0.00 31 1006.3
20260505001009 75 107 0.0 0.0 0.00 0.00 0.00 31 1006.6
20260505000506 75 68 0.0 0.9 0.00 0.00 0.00 33 1006.5
20260505000004 75 41 2.6 2.6 0.00 0.00 0.00 31 1006.2
20260504235500 76 97 0.9 0.9 0.00 0.00 0.00 31 1006.5
20260504234956 75 89 0.9 1.7 0.00 0.00 0.00 32 1006.6
20260504234454 76 65 3.5 3.5 0.00 0.00 0.00 31 1006.5
20260504233950 76 75 0.0 0.9 0.00 0.00 0.00 31 1006.6
20260504233446 76 68 2.6 3.5 0.00 0.00 0.00 31 1006.2
20260504232943 75 76 0.9 0.9 0.00 0.00 0.00 32 1006.3
20260504232440 75 355 0.9 0.9 0.00 0.00 0.00 32 1006.5
20260504231938 75 20 3.5 5.2 0.00 0.00 0.00 31 1006.6
20260504231433 75 56 3.5 3.5 0.00 0.00 0.00 32 1006.6
20260504230930 76 348 3.5 5.2 0.00 0.00 0.00 31 1006.3
20260504230427 75 54 3.5 5.2 0.00 0.00 0.00 31 1006.5
20260504225926 75 55 0.0 0.0 0.00 0.00 0.00 32 1006.7
20260504225422 76 16 7.8 9.6 0.00 0.00 0.00 32 1006.8
20260504224919 76 65 1.7 1.7 0.00 0.00 0.00 32 1006.7
20260504224416 75 67 1.7 1.7 0.00 0.00 0.00 32 1006.5
20260504223913 76 86 0.0 0.9 0.00 0.00 0.00 31 1006.7
20260504223409 75 86 0.9 1.7 0.00 0.00 0.00 31 1006.8
20260504222905 75 180 0.9 0.9 0.00 0.00 0.00 33 1006.8
20260504222402 76 177 3.5 3.5 0.00 0.00 0.00 32 1006.8
20260504221900 76 140 1.7 3.5 0.00 0.00 0.00 34 1006.9
20260504221356 76 87 0.0 0.0 0.00 0.00 0.00 32 1006.5
20260504220854 76 102 3.5 6.1 0.00 0.00 0.00 32 1006.7
20260504220350 76 163 3.5 3.5 0.00 0.00 0.00 36 1006.8
20260504215848 75 36 0.0 0.0 0.00 0.00 0.00 31 1006.6
20260504215344 74 102 1.7 2.6 0.00 0.00 0.00 32 1006.7
20260504214840 75 79 1.7 2.6 0.00 0.00 0.00 35 1007.0
20260504214337 76 68 0.0 0.0 0.00 0.00 0.00 32 1006.8
20260504213834 76 36 0.9 0.9 0.00 0.00 0.00 32 1007.1
20260504213330 75 86 0.0 0.9 0.00 0.00 0.00 33 1007.0
20260504212828 75 156 6.1 7.8 0.00 0.00 0.00 34 1007.0
20260504212323 75 146 7.0 8.7 0.00 0.00 0.00 35 1007.1
20260504211822 76 168 0.9 1.7 0.00 0.00 0.00 35 1007.1
20260504211317 76 109 1.7 2.6 0.00 0.00 0.00 34 1007.0
20260504210815 75 40 3.5 3.5 0.00 0.00 0.00 32 1007.1
20260504210312 75 357 0.9 1.7 0.00 0.00 0.00 33 1007.0
20260504205809 75 122 2.6 3.5 0.00 0.00 0.00 35 1006.9
20260504205306 75 85 2.6 2.6 0.00 0.00 0.00 32 1007.1
20260504204805 74 104 0.0 0.9 0.00 0.00 0.00 35 1007.1
20260504204303 75 19 3.5 5.2 0.00 0.00 0.00 33 1007.1
20260504203802 73 148 3.5 5.2 0.00 0.00 0.00 35 1007.0
20260504203258 75 17 6.1 7.0 0.00 0.00 0.00 32 1007.2
20260504202753 74 134 1.7 1.7 0.00 0.00 0.00 37 1007.0
20260504202250 75 39 1.7 1.7 0.00 0.00 0.00 33 1007.2
20260504201747 76 12 2.6 2.6 0.00 0.00 0.00 33 1007.0
20260504201244 76 65 0.0 0.9 0.00 0.00 0.00 33 1007.2
20260504200742 74 346 2.6 2.6 0.00 0.00 0.00 32 1007.0
20260504200238 75 25 5.2 7.8 0.00 0.00 0.00 33 1007.3
20260504195735 73 345 5.2 7.0 0.00 0.00 0.00 34 1007.1
20260504195230 73 71 2.6 3.5 0.00 0.00 0.00 35 1007.2
20260504194728 73 29 4.3 7.0 0.00 0.00 0.00 35 1007.3
20260504194223 75 15 7.0 8.7 0.00 0.00 0.00 34 1007.1
20260504193720 74 125 2.6 5.2 0.00 0.00 0.00 34 1007.3
20260504193218 73 81 1.7 1.7 0.00 0.00 0.00 38 1007.3
20260504192716 72 21 3.5 5.2 0.00 0.00 0.00 35 1007.2
20260504192214 73 78 0.9 0.9 0.00 0.00 0.00 34 1007.3
20260504191712 73 80 0.9 0.9 0.00 0.00 0.00 35 1007.4
20260504191209 72 23 7.0 8.7 0.00 0.00 0.00 35 1007.4
20260504190704 72 78 2.6 2.6 0.00 0.00 0.00 36 1007.2
20260504190200 73 68 1.7 3.5 0.00 0.00 0.00 37 1007.5
20260504185657 72 89 3.5 5.2 0.00 0.00 0.00 41 1007.4
20260504185153 72 353 3.5 3.5 0.00 0.00 0.00 36 1007.5
20260504184650 73 129 1.7 2.6 0.00 0.00 0.00 36 1007.6
20260504184145 72 89 0.0 0.0 0.00 0.00 0.00 36 1007.5
20260504183642 74 34 2.6 3.5 0.00 0.00 0.00 38 1007.5
20260504183139 73 93 0.0 0.0 0.00 0.00 0.00 36 1007.3
20260504182637 71 64 0.9 0.9 0.00 0.00 0.00 37 1007.4
20260504182134 73 160 2.6 3.5 0.00 0.00 0.00 36 1007.5
20260504181632 72 77 0.0 0.9 0.00 0.00 0.00 38 1007.5
20260504181129 71 137 0.9 1.7 0.00 0.00 0.00 40 1007.6
20260504180628 72 56 3.5 3.5 0.00 0.00 0.00 39 1007.4
20260504180127 72 143 0.0 0.9 0.00 0.00 0.00 40 1007.5
20260504175623 72 112 1.7 3.5 0.00 0.00 0.00 44 1007.5
20260504175120 71 112 0.9 0.9 0.00 0.00 0.00 41 1007.5
20260504174618 71 20 4.3 6.1 0.00 0.00 0.00 40 1007.4
20260504174114 71 89 0.9 0.9 0.00 0.00 0.00 40 1007.5
20260504173611 71 102 0.0 0.9 0.00 0.00 0.00 39 1007.6
20260504173109 70 154 2.6 2.6 0.00 0.00 0.00 40 1007.4
20260504172605 69 63 2.6 3.5 0.00 0.00 0.00 43 1007.6
20260504172102 69 93 1.7 2.6 0.00 0.00 0.00 44 1007.3
20260504171558 69 14 7.0 7.8 0.00 0.00 0.00 40 1007.5
20260504171056 70 24 4.3 5.2 0.00 0.00 0.00 40 1007.6
20260504170551 68 76 1.7 1.7 0.00 0.00 0.00 42 1007.4
20260504150935 56 83 0.0 0.0 0.00 0.00 0.00 68 1008.0
20260504150432 55 99 0.0 0.9 0.00 0.00 0.00 68 1007.7
20260504140858 51 59 0.0 0.0 0.00 0.00 0.00 79 1007.6
20260504140354 50 128 0.0 0.0 0.00 0.00 0.00 81 1007.8
20260504130818 44 252 0.0 0.0 0.00 0.00 0.00 92 1007.0
20260504130314 44 240 0.9 1.7 0.00 0.00 0.00 92 1007.1
20260504120238 44 348 0.9 0.9 0.00 0.00 0.00 90 1006.7
20260504110705 46 264 0.9 0.9 0.00 0.00 0.00 88 1007.0
20260504110201 46 293 0.0 0.0 0.00 0.00 0.00 88 1007.0
20260504100125 47 339 0.0 0.0 0.00 0.00 0.00 84 1007.0
20260504081518 50 287 0.9 0.9 0.00 0.00 0.00 81 1006.6
20260504081014 50 287 0.9 0.9 0.00 0.00 0.00 81 1006.5
20260504080510 50 286 0.9 0.9 0.00 0.00 0.00 82 1006.8